Time,TemperatureF,DewpointF,PressureIn,WindDirection,WindDirectionDegrees,WindSpeedMPH,WindSpeedGustMPH,Humidity,HourlyPrecipIn,Conditions,Clouds,dailyrainin,SoftwareType,DateUTC
2013-09-26 00:01:00,57.2,31.8,31.03,NNW,328,3.0,4.0,38,0.00,,,0.00,meteohub,2013-09-26 04:01:00,
2013-09-26 00:02:00,57.2,31.8,31.03,NNW,328,3.0,4.0,38,0.00,,,0.00,meteohub,2013-09-26 04:02:00,
2013-09-26 00:04:00,57.2,31.8,31.03,NNW,328,3.0,4.0,38,0.00,,,0.00,meteohub,2013-09-26 04:04:00,
2013-09-26 00:07:00,57.2,32.5,31.03,NNW,328,3.0,4.0,39,0.00,,,0.00,meteohub,2013-09-26 04:07:00,
2013-09-26 00:12:00,57.2,32.5,31.03,NNW,328,2.0,4.0,39,0.00,,,0.00,meteohub,2013-09-26 04:12:00,
2013-09-26 00:17:00,57.2,32.5,31.03,NNW,329,3.0,4.0,39,0.00,,,0.00,meteohub,2013-09-26 04:17:00,
2013-09-26 00:22:00,57.2,32.5,31.03,NNW,328,3.0,4.0,39,0.00,,,0.00,meteohub,2013-09-26 04:22:00,
2013-09-26 00:27:00,57.2,32.5,31.03,NNW,328,3.0,4.0,39,0.00,,,0.00,meteohub,2013-09-26 04:27:00,
2013-09-26 00:32:00,57.2,32.5,31.03,NNW,328,3.0,4.0,39,0.00,,,0.00,meteohub,2013-09-26 04:32:00,
2013-09-26 00:38:00,57.2,32.5,31.03,NNW,328,4.0,4.0,39,0.00,,,0.00,meteohub,2013-09-26 04:38:00,
2013-09-26 00:43:00,57.2,33.1,31.03,NNW,328,3.0,4.0,40,0.00,,,0.00,meteohub,2013-09-26 04:43:00,
2013-09-26 00:48:00,57.0,33.6,31.03,SW,220,4.0,4.0,41,0.00,,,0.00,meteohub,2013-09-26 04:48:00,
2013-09-26 00:53:00,57.2,33.6,31.03,WSW,237,4.0,4.0,41,0.00,,,0.00,meteohub,2013-09-26 04:53:00,
2013-09-26 00:59:00,57.2,33.6,31.03,WSW,250,3.0,5.0,41,0.00,,,0.00,meteohub,2013-09-26 04:59:00,
2013-09-26 01:04:00,56.8,33.4,31.03,WSW,250,0.0,5.0,41,0.00,,,0.00,meteohub,2013-09-26 05:04:00,
2013-09-26 01:09:00,56.8,32.7,31.03,WSW,250,3.0,4.0,40,0.00,,,0.00,meteohub,2013-09-26 05:09:00,
2013-09-26 01:15:00,56.7,32.5,31.03,WSW,250,2.0,3.0,40,0.00,,,0.00,meteohub,2013-09-26 05:15:00,
2013-09-26 01:20:00,56.7,33.3,31.03,WSW,250,4.0,4.0,41,0.00,,,0.00,meteohub,2013-09-26 05:20:00,
2013-09-26 01:25:00,56.7,33.3,31.03,West,272,4.0,4.0,41,0.00,,,0.00,meteohub,2013-09-26 05:25:00,
2013-09-26 01:31:00,56.5,33.1,31.03,West,279,3.0,4.0,41,0.00,,,0.00,meteohub,2013-09-26 05:31:00,
2013-09-26 01:36:00,56.5,33.1,31.03,West,275,3.0,4.0,41,0.00,,,0.00,meteohub,2013-09-26 05:36:00,
2013-09-26 01:41:00,56.3,32.9,31.03,West,270,3.0,5.0,41,0.00,,,0.00,meteohub,2013-09-26 05:41:00,
2013-09-26 01:46:00,56.3,32.9,31.03,West,268,2.0,4.0,41,0.00,,,0.00,meteohub,2013-09-26 05:46:00,
2013-09-26 01:51:00,56.5,33.6,31.03,WSW,247,4.0,4.0,42,0.00,,,0.00,meteohub,2013-09-26 05:51:00,
2013-09-26 01:57:00,56.7,33.8,31.03,West,263,3.0,4.0,42,0.00,,,0.00,meteohub,2013-09-26 05:57:00,
2013-09-26 02:02:00,56.7,33.8,31.03,West,263,0.0,4.0,42,0.00,,,0.00,meteohub,2013-09-26 06:02:00,
2013-09-26 02:07:00,56.7,33.8,31.03,West,262,3.0,4.0,42,0.00,,,0.00,meteohub,2013-09-26 06:07:00,
2013-09-26 02:12:00,56.7,33.8,31.03,West,262,0.0,4.0,42,0.00,,,0.00,meteohub,2013-09-26 06:12:00,
2013-09-26 02:17:00,56.8,34.0,31.03,West,262,3.0,4.0,42,0.00,,,0.00,meteohub,2013-09-26 06:17:00,
2013-09-26 02:22:00,56.8,34.0,31.03,West,261,3.0,4.0,42,0.00,,,0.00,meteohub,2013-09-26 06:22:00,
2013-09-26 02:28:00,56.8,34.0,31.03,West,261,3.0,4.0,42,0.00,,,0.00,meteohub,2013-09-26 06:28:00,
2013-09-26 02:33:00,56.8,34.0,31.03,WSW,256,4.0,4.0,42,0.00,,,0.00,meteohub,2013-09-26 06:33:00,
2013-09-26 02:38:00,56.8,34.5,31.03,WSW,249,2.0,4.0,43,0.00,,,0.00,meteohub,2013-09-26 06:38:00,
2013-09-26 02:44:00,57.0,34.7,31.03,SW,235,4.0,4.0,43,0.00,,,0.00,meteohub,2013-09-26 06:44:00,
2013-09-26 02:49:00,57.2,34.9,31.03,WSW,255,3.0,5.0,43,0.00,,,0.00,meteohub,2013-09-26 06:49:00,
2013-09-26 02:54:00,57.4,35.1,31.03,WSW,238,3.0,5.0,43,0.00,,,0.00,meteohub,2013-09-26 06:54:00,
2013-09-26 02:59:00,57.4,35.6,31.03,SW,235,3.0,5.0,44,0.00,,,0.00,meteohub,2013-09-26 06:59:00,
2013-09-26 03:05:00,57.6,35.8,31.03,WSW,256,3.0,5.0,44,0.00,,,0.00,meteohub,2013-09-26 07:05:00,
2013-09-26 03:10:00,57.6,35.8,31.03,WSW,245,3.0,6.0,44,0.00,,,0.00,meteohub,2013-09-26 07:10:00,
2013-09-26 03:15:00,57.7,36.0,31.03,WSW,247,3.0,6.0,44,0.00,,,0.00,meteohub,2013-09-26 07:15:00,
2013-09-26 03:20:00,57.7,36.0,31.03,West,265,3.0,6.0,44,0.00,,,0.00,meteohub,2013-09-26 07:20:00,
2013-09-26 03:25:00,57.9,36.7,31.03,WSW,238,4.0,6.0,45,0.00,,,0.00,meteohub,2013-09-26 07:25:00,
2013-09-26 03:31:00,57.9,36.7,31.03,WSW,249,3.0,5.0,45,0.00,,,0.00,meteohub,2013-09-26 07:31:00,
2013-09-26 03:36:00,57.9,36.7,31.03,WSW,255,3.0,5.0,45,0.00,,,0.00,meteohub,2013-09-26 07:36:00,
2013-09-26 03:41:00,58.1,36.9,31.03,West,260,0.0,4.0,45,0.00,,,0.00,meteohub,2013-09-26 07:41:00,
2013-09-26 03:47:00,58.1,36.9,31.03,West,265,3.0,4.0,45,0.00,,,0.00,meteohub,2013-09-26 07:47:00,
2013-09-26 03:52:00,58.1,36.9,31.03,West,271,3.0,4.0,45,0.00,,,0.00,meteohub,2013-09-26 07:52:00,
2013-09-26 03:57:00,58.1,36.9,31.03,West,271,4.0,4.0,45,0.00,,,0.00,meteohub,2013-09-26 07:57:00,
2013-09-26 04:02:00,57.9,36.7,31.03,WNW,290,6.0,6.0,45,0.00,,,0.00,meteohub,2013-09-26 08:02:00,
2013-09-26 04:07:00,57.9,36.7,31.03,WNW,295,3.0,4.0,45,0.00,,,0.00,meteohub,2013-09-26 08:07:00,
2013-09-26 04:12:00,57.9,36.7,31.03,WNW,298,3.0,6.0,45,0.00,,,0.00,meteohub,2013-09-26 08:12:00,
2013-09-26 04:17:00,57.9,36.7,31.03,WNW,295,3.0,6.0,45,0.00,,,0.00,meteohub,2013-09-26 08:17:00,
2013-09-26 04:23:00,57.9,36.7,31.03,WNW,296,3.0,6.0,45,0.00,,,0.00,meteohub,2013-09-26 08:23:00,
2013-09-26 04:28:00,57.9,36.7,31.03,WNW,297,3.0,5.0,45,0.00,,,0.00,meteohub,2013-09-26 08:28:00,
2013-09-26 04:33:00,57.9,36.7,31.03,WNW,297,3.0,5.0,45,0.00,,,0.00,meteohub,2013-09-26 08:33:00,
2013-09-26 04:38:00,57.9,36.7,31.03,WNW,297,3.0,5.0,45,0.00,,,0.00,meteohub,2013-09-26 08:38:00,
2013-09-26 04:44:00,57.9,36.7,31.03,NW,310,4.0,5.0,45,0.00,,,0.00,meteohub,2013-09-26 08:44:00,
2013-09-26 04:49:00,57.7,36.0,31.03,NW,310,4.0,6.0,44,0.00,,,0.00,meteohub,2013-09-26 08:49:00,
2013-09-26 04:54:00,57.7,36.0,31.03,NW,310,3.0,6.0,44,0.00,,,0.00,meteohub,2013-09-26 08:54:00,
2013-09-26 04:59:00,57.7,36.0,31.03,NW,309,4.0,5.0,44,0.00,,,0.00,meteohub,2013-09-26 08:59:00,
2013-09-26 05:05:00,57.6,35.8,31.03,NW,309,3.0,5.0,44,0.00,,,0.00,meteohub,2013-09-26 09:05:00,
2013-09-26 05:10:00,57.6,35.8,31.03,NW,309,0.0,5.0,44,0.00,,,0.00,meteohub,2013-09-26 09:10:00,
2013-09-26 05:15:00,57.6,35.8,31.03,NW,309,4.0,5.0,44,0.00,,,0.00,meteohub,2013-09-26 09:15:00,
2013-09-26 05:21:00,57.4,35.6,31.03,NW,309,0.0,5.0,44,0.00,,,0.00,meteohub,2013-09-26 09:21:00,
2013-09-26 05:26:00,57.4,35.6,31.03,NW,309,5.0,5.0,44,0.00,,,0.00,meteohub,2013-09-26 09:26:00,
2013-09-26 05:32:00,57.2,34.9,31.03,NW,309,4.0,5.0,43,0.00,,,0.00,meteohub,2013-09-26 09:32:00,
2013-09-26 05:38:00,57.2,34.9,31.03,NW,307,2.0,5.0,43,0.00,,,0.00,meteohub,2013-09-26 09:38:00,
2013-09-26 05:43:00,57.0,34.7,31.03,NW,307,3.0,5.0,43,0.00,,,0.00,meteohub,2013-09-26 09:43:00,
2013-09-26 05:48:00,56.8,34.0,31.03,NW,307,4.0,6.0,42,0.00,,,0.00,meteohub,2013-09-26 09:48:00,
2013-09-26 05:54:00,56.8,34.0,31.03,NW,315,5.0,6.0,42,0.00,,,0.00,meteohub,2013-09-26 09:54:00,
2013-09-26 05:59:00,56.8,32.7,31.03,NW,315,8.0,8.0,40,0.00,,,0.00,meteohub,2013-09-26 09:59:00,
2013-09-26 06:05:00,56.8,32.7,31.03,WNW,302,6.0,10.0,40,0.00,,,0.00,meteohub,2013-09-26 10:05:00,
2013-09-26 06:10:00,56.8,32.2,31.03,NW,314,6.0,10.0,39,0.00,,,0.00,meteohub,2013-09-26 10:10:00,
2013-09-26 06:15:00,56.8,32.2,31.03,WNW,303,5.0,10.0,39,0.00,,,0.00,meteohub,2013-09-26 10:15:00,
2013-09-26 06:20:00,56.7,32.0,31.03,NW,323,4.0,11.0,39,0.00,,,0.00,meteohub,2013-09-26 10:20:00,
2013-09-26 06:26:00,56.7,32.0,31.03,NW,308,2.0,11.0,39,0.00,,,0.00,meteohub,2013-09-26 10:26:00,
2013-09-26 06:31:00,56.7,32.0,31.03,NW,311,6.0,11.0,39,0.00,,,0.00,meteohub,2013-09-26 10:31:00,
2013-09-26 06:37:00,56.8,32.2,31.03,NW,311,4.0,8.0,39,0.00,,,0.00,meteohub,2013-09-26 10:37:00,
2013-09-26 06:42:00,56.8,32.2,31.03,NW,308,4.0,8.0,39,0.00,,,0.00,meteohub,2013-09-26 10:42:00,
2013-09-26 06:47:00,56.8,32.2,31.03,NW,316,5.0,8.0,39,0.00,,,0.00,meteohub,2013-09-26 10:47:00,
2013-09-26 06:52:00,57.0,32.4,31.03,NW,312,4.0,8.0,39,0.00,,,0.00,meteohub,2013-09-26 10:52:00,
2013-09-26 06:57:00,57.0,31.6,31.03,NW,319,6.0,6.0,38,0.00,,,0.00,meteohub,2013-09-26 10:57:00,
2013-09-26 07:02:00,57.0,31.6,31.03,NW,313,4.0,6.0,38,0.00,,,0.00,meteohub,2013-09-26 11:02:00,
2013-09-26 07:07:00,56.8,31.5,31.03,NW,314,5.0,6.0,38,0.00,,,0.00,meteohub,2013-09-26 11:07:00,
2013-09-26 07:12:00,56.8,31.5,31.03,NNW,330,5.0,7.0,38,0.00,,,0.00,meteohub,2013-09-26 11:12:00,
2013-09-26 07:17:00,57.0,30.9,31.03,West,273,6.0,7.0,37,0.00,,,0.00,meteohub,2013-09-26 11:17:00,
2013-09-26 07:22:00,57.0,30.4,31.03,NW,306,4.0,10.0,36,0.00,,,0.00,meteohub,2013-09-26 11:22:00,
2013-09-26 07:27:00,57.2,30.6,31.03,WNW,293,4.0,10.0,36,0.00,,,0.00,meteohub,2013-09-26 11:27:00,
2013-09-26 07:32:00,57.4,30.6,31.03,NW,317,5.0,10.0,36,0.00,,,0.00,meteohub,2013-09-26 11:32:00,
2013-09-26 07:37:00,57.6,30.0,31.03,NW,320,6.0,10.0,35,0.00,,,0.00,meteohub,2013-09-26 11:37:00,
2013-09-26 07:42:00,57.6,30.0,31.03,NW,309,8.0,9.0,35,0.00,,,0.00,meteohub,2013-09-26 11:42:00,
2013-09-26 07:47:00,57.9,30.4,31.03,WNW,297,6.0,9.0,35,0.00,,,0.00,meteohub,2013-09-26 11:47:00,
2013-09-26 07:52:00,57.9,30.4,31.03,West,266,6.0,9.0,35,0.00,,,0.00,meteohub,2013-09-26 11:52:00,
2013-09-26 07:57:00,58.1,29.8,31.03,WNW,299,5.0,9.0,34,0.00,,,0.00,meteohub,2013-09-26 11:57:00,
2013-09-26 08:02:00,58.3,29.3,31.03,NW,314,9.0,9.0,33,0.00,,,0.00,meteohub,2013-09-26 12:02:00,
2013-09-26 08:07:00,58.5,27.9,31.03,WNW,288,8.0,9.0,31,0.00,,,0.00,meteohub,2013-09-26 12:07:00,
2013-09-26 08:12:00,58.6,26.4,31.03,WNW,301,11.0,12.0,29,0.00,,,0.00,meteohub,2013-09-26 12:12:00,
2013-09-26 08:17:00,58.8,25.0,31.03,West,280,10.0,12.0,27,0.00,,,0.00,meteohub,2013-09-26 12:17:00,
2013-09-26 08:22:00,59.2,24.3,31.03,WNW,303,6.0,12.0,26,0.00,,,0.00,meteohub,2013-09-26 12:22:00,
2013-09-26 08:28:00,59.4,24.4,31.03,NW,318,8.0,12.0,26,0.00,,,0.00,meteohub,2013-09-26 12:28:00,
2013-09-26 08:33:00,59.5,23.7,31.03,WSW,237,11.0,12.0,25,0.00,,,0.00,meteohub,2013-09-26 12:33:00,
2013-09-26 08:38:00,59.7,25.7,31.03,NW,317,6.0,13.0,27,0.00,,,0.00,meteohub,2013-09-26 12:38:00,
2013-09-26 08:43:00,60.1,24.1,31.03,NNW,335,11.0,13.0,25,0.00,,,0.00,meteohub,2013-09-26 12:43:00,
2013-09-26 08:49:00,60.3,24.3,31.03,NW,325,11.0,13.0,25,0.00,,,0.00,meteohub,2013-09-26 12:49:00,
2013-09-26 08:54:00,60.4,24.4,31.03,WNW,286,8.0,13.0,25,0.00,,,0.00,meteohub,2013-09-26 12:54:00,
2013-09-26 08:59:00,60.4,25.3,31.03,WNW,290,6.0,13.0,26,0.00,,,0.00,meteohub,2013-09-26 12:59:00,
2013-09-26 09:05:00,60.6,25.5,31.03,NW,309,8.0,13.0,26,0.00,,,0.00,meteohub,2013-09-26 13:05:00,
2013-09-26 09:10:00,60.8,26.6,31.03,NW,312,8.0,13.0,27,0.00,,,0.00,meteohub,2013-09-26 13:10:00,
2013-09-26 09:15:00,61.2,26.1,31.03,NW,315,8.0,13.0,26,0.00,,,0.00,meteohub,2013-09-26 13:15:00,
2013-09-26 09:20:00,61.3,24.3,31.03,West,277,15.0,15.0,24,0.00,,,0.00,meteohub,2013-09-26 13:20:00,
2013-09-26 09:26:00,61.0,23.9,31.03,NNW,340,8.0,13.0,24,0.00,,,0.00,meteohub,2013-09-26 13:26:00,
2013-09-26 09:31:00,61.2,24.1,31.03,West,271,11.0,13.0,24,0.00,,,0.00,meteohub,2013-09-26 13:31:00,
2013-09-26 09:36:00,61.5,24.4,31.03,West,275,6.0,13.0,24,0.00,,,0.00,meteohub,2013-09-26 13:36:00,
2013-09-26 09:42:00,61.5,14.9,31.03,NW,313,13.0,19.0,16,0.00,,,0.00,meteohub,2013-09-26 13:42:00,
2013-09-26 09:47:00,61.7,12.0,31.03,NW,304,6.0,19.0,14,0.00,,,0.00,meteohub,2013-09-26 13:47:00,
2013-09-26 09:52:00,62.1,12.2,31.03,West,275,8.0,17.0,14,0.00,,,0.00,meteohub,2013-09-26 13:52:00,
2013-09-26 09:57:00,61.7,15.1,31.03,NW,306,9.0,17.0,16,0.00,,,0.00,meteohub,2013-09-26 13:57:00,
2013-09-26 10:02:00,62.1,7.0,31.03,NW,318,11.0,17.0,11,0.00,,,0.00,meteohub,2013-09-26 14:02:00,
2013-09-26 10:07:00,63.0,7.5,31.03,West,281,15.0,17.0,11,0.00,,,0.00,meteohub,2013-09-26 14:07:00,
2013-09-26 10:12:00,63.1,0.9,31.03,WNW,288,15.0,15.0,8,0.00,,,0.00,meteohub,2013-09-26 14:12:00,
2013-09-26 10:18:00,62.6,0.5,31.03,NW,316,11.0,15.0,8,0.00,,,0.00,meteohub,2013-09-26 14:18:00,
2013-09-26 10:23:00,61.7,6.6,31.03,West,265,12.0,16.0,11,0.00,,,0.00,meteohub,2013-09-26 14:23:00,
2013-09-26 10:28:00,61.2,6.3,31.03,SW,214,11.0,16.0,11,0.00,,,0.00,meteohub,2013-09-26 14:28:00,
2013-09-26 10:34:00,61.5,11.8,31.03,West,271,6.0,16.0,14,0.00,,,0.00,meteohub,2013-09-26 14:34:00,
2013-09-26 10:39:00,63.1,7.7,31.03,NNW,327,6.0,15.0,11,0.00,,,0.00,meteohub,2013-09-26 14:39:00,
2013-09-26 10:44:00,64.0,1.6,31.03,NNW,327,11.0,15.0,8,0.00,,,0.00,meteohub,2013-09-26 14:44:00,
2013-09-26 10:49:00,65.1,2.3,31.03,WNW,293,11.0,15.0,8,0.00,,,0.00,meteohub,2013-09-26 14:49:00,
2013-09-26 10:55:00,65.7,2.7,31.03,WNW,289,11.0,17.0,8,0.00,,,0.00,meteohub,2013-09-26 14:55:00,
2013-09-26 11:00:00,65.8,2.8,31.03,West,274,11.0,17.0,8,0.00,,,0.00,meteohub,2013-09-26 15:00:00,
2013-09-26 11:06:00,66.4,0.3,31.03,NNW,330,12.0,17.0,7,0.00,,,0.00,meteohub,2013-09-26 15:06:00,
2013-09-26 11:11:00,66.6,0.5,31.03,NW,309,9.0,15.0,7,0.00,,,0.00,meteohub,2013-09-26 15:11:00,
2013-09-26 11:16:00,66.6,-6.5,31.03,WSW,248,11.0,15.0,5,0.00,,,0.00,meteohub,2013-09-26 15:16:00,
2013-09-26 11:21:00,66.2,0.3,31.03,NW,311,8.0,15.0,7,0.00,,,0.00,meteohub,2013-09-26 15:21:00,
2013-09-26 11:27:00,65.7,-7.2,31.03,WSW,252,8.0,15.0,5,0.00,,,0.00,meteohub,2013-09-26 15:27:00,
2013-09-26 11:32:00,65.1,2.3,31.03,WNW,302,11.0,15.0,8,0.00,,,0.00,meteohub,2013-09-26 15:32:00,
2013-09-26 11:37:00,65.1,2.3,31.03,West,273,13.0,15.0,8,0.00,,,0.00,meteohub,2013-09-26 15:37:00,
2013-09-26 11:42:00,65.1,-7.6,31.03,WNW,299,9.0,15.0,5,0.00,,,0.00,meteohub,2013-09-26 15:42:00,
2013-09-26 11:47:00,64.2,1.6,31.03,West,264,13.0,15.0,8,0.00,,,0.00,meteohub,2013-09-26 15:47:00,
2013-09-26 11:53:00,63.9,8.2,31.03,NW,313,11.0,15.0,11,0.00,,,0.00,meteohub,2013-09-26 15:53:00,
2013-09-26 11:58:00,63.7,8.2,31.03,NW,311,9.0,15.0,11,0.00,,,0.00,meteohub,2013-09-26 15:58:00,
2013-09-26 12:04:00,64.2,12.4,31.03,West,260,5.0,15.0,13,0.00,,,0.00,meteohub,2013-09-26 16:04:00,
2013-09-26 12:09:00,64.0,8.4,31.03,NW,304,9.0,18.0,11,0.00,,,0.00,meteohub,2013-09-26 16:09:00,
2013-09-26 12:14:00,64.0,8.4,31.03,West,267,9.0,18.0,11,0.00,,,0.00,meteohub,2013-09-26 16:14:00,
2013-09-26 12:19:00,63.7,8.2,31.03,West,270,4.0,18.0,11,0.00,,,0.00,meteohub,2013-09-26 16:19:00,
2013-09-26 12:25:00,63.9,8.2,31.03,NW,321,8.0,13.0,11,0.00,,,0.00,meteohub,2013-09-26 16:25:00,
2013-09-26 12:30:00,63.9,8.2,31.03,WNW,287,12.0,13.0,11,0.00,,,0.00,meteohub,2013-09-26 16:30:00,
2013-09-26 12:36:00,63.9,8.2,31.03,WNW,287,11.0,13.0,11,0.00,,,0.00,meteohub,2013-09-26 16:36:00,
2013-09-26 12:41:00,63.9,8.2,31.03,NW,319,4.0,13.0,11,0.00,,,0.00,meteohub,2013-09-26 16:41:00,
2013-09-26 12:46:00,64.2,12.4,31.03,WNW,300,10.0,13.0,13,0.00,,,0.00,meteohub,2013-09-26 16:46:00,
2013-09-26 12:51:00,63.9,12.0,31.03,NNW,327,9.0,13.0,13,0.00,,,0.00,meteohub,2013-09-26 16:51:00,
2013-09-26 12:57:00,63.9,8.2,31.03,WNW,283,6.0,13.0,11,0.00,,,0.00,meteohub,2013-09-26 16:57:00,
2013-09-26 13:02:00,63.9,8.2,31.03,WSW,248,11.0,15.0,11,0.00,,,0.00,meteohub,2013-09-26 17:02:00,
2013-09-26 13:07:00,63.9,12.0,31.03,WNW,289,9.0,15.0,13,0.00,,,0.00,meteohub,2013-09-26 17:07:00,
2013-09-26 13:12:00,64.9,7.0,31.03,NW,321,10.0,15.0,10,0.00,,,0.00,meteohub,2013-09-26 17:12:00,
2013-09-26 13:17:00,65.1,2.3,31.03,WSW,255,10.0,13.0,8,0.00,,,0.00,meteohub,2013-09-26 17:17:00,
2013-09-26 13:22:00,65.5,2.7,31.03,WSW,257,6.0,13.0,8,0.00,,,0.00,meteohub,2013-09-26 17:22:00,
2013-09-26 13:27:00,64.6,1.9,31.03,WSW,251,9.0,13.0,8,0.00,,,0.00,meteohub,2013-09-26 17:27:00,
2013-09-26 13:32:00,65.8,7.7,31.03,WNW,302,6.0,13.0,10,0.00,,,0.00,meteohub,2013-09-26 17:32:00,
2013-09-26 13:37:00,66.6,0.5,31.03,West,281,9.0,13.0,7,0.00,,,0.00,meteohub,2013-09-26 17:37:00,
2013-09-26 13:42:00,65.8,2.8,31.03,WNW,291,7.0,15.0,8,0.00,,,0.00,meteohub,2013-09-26 17:42:00,
2013-09-26 13:47:00,65.3,2.5,31.03,WNW,302,13.0,15.0,8,0.00,,,0.00,meteohub,2013-09-26 17:47:00,
2013-09-26 13:52:00,65.3,2.5,31.03,WNW,300,5.0,15.0,8,0.00,,,0.00,meteohub,2013-09-26 17:52:00,
2013-09-26 13:57:00,65.7,2.7,31.03,WNW,290,9.0,15.0,8,0.00,,,0.00,meteohub,2013-09-26 17:57:00,
2013-09-26 14:02:00,65.1,2.3,31.03,WNW,294,4.0,15.0,8,0.00,,,0.00,meteohub,2013-09-26 18:02:00,
2013-09-26 14:07:00,64.9,7.0,31.03,WNW,284,8.0,15.0,10,0.00,,,0.00,meteohub,2013-09-26 18:07:00,
2013-09-26 14:13:00,64.8,7.0,31.03,WSW,252,8.0,13.0,10,0.00,,,0.00,meteohub,2013-09-26 18:13:00,
2013-09-26 14:18:00,64.0,8.4,31.03,West,273,6.0,13.0,11,0.00,,,0.00,meteohub,2013-09-26 18:18:00,
2013-09-26 14:23:00,63.9,8.2,31.03,SW,222,6.0,13.0,11,0.00,,,0.00,meteohub,2013-09-26 18:23:00,
2013-09-26 14:28:00,63.9,8.2,31.03,NW,304,8.0,14.0,11,0.00,,,0.00,meteohub,2013-09-26 18:28:00,
2013-09-26 14:34:00,63.5,8.1,31.03,NW,307,11.0,14.0,11,0.00,,,0.00,meteohub,2013-09-26 18:34:00,
2013-09-26 14:39:00,63.3,7.9,31.03,West,260,8.0,13.0,11,0.00,,,0.00,meteohub,2013-09-26 18:39:00,
2013-09-26 14:44:00,63.5,8.1,31.03,West,266,13.0,15.0,11,0.00,,,0.00,meteohub,2013-09-26 18:44:00,
2013-09-26 14:49:00,63.3,7.9,31.03,West,274,9.0,15.0,11,0.00,,,0.00,meteohub,2013-09-26 18:49:00,
2013-09-26 14:55:00,63.1,11.5,31.03,SW,235,8.0,15.0,13,0.00,,,0.00,meteohub,2013-09-26 18:55:00,
2013-09-26 15:00:00,63.1,11.5,31.03,West,263,8.0,15.0,13,0.00,,,0.00,meteohub,2013-09-26 19:00:00,
2013-09-26 15:05:00,63.1,11.5,31.03,NW,305,11.0,15.0,13,0.00,,,0.00,meteohub,2013-09-26 19:05:00,
2013-09-26 15:10:00,63.1,11.5,31.03,NW,306,10.0,15.0,13,0.00,,,0.00,meteohub,2013-09-26 19:10:00,
2013-09-26 15:16:00,63.5,11.8,31.03,WNW,287,11.0,14.0,13,0.00,,,0.00,meteohub,2013-09-26 19:16:00,
2013-09-26 15:21:00,63.5,8.1,31.03,WNW,291,10.0,14.0,11,0.00,,,0.00,meteohub,2013-09-26 19:21:00,
2013-09-26 15:26:00,63.1,11.5,31.03,WNW,291,10.0,17.0,13,0.00,,,0.00,meteohub,2013-09-26 19:26:00,
2013-09-26 15:31:00,63.0,11.3,31.03,WNW,292,8.0,17.0,13,0.00,,,0.00,meteohub,2013-09-26 19:31:00,
2013-09-26 15:37:00,63.0,11.3,31.03,West,272,11.0,17.0,13,0.00,,,0.00,meteohub,2013-09-26 19:37:00,
2013-09-26 15:42:00,63.0,11.3,31.03,NW,308,8.0,14.0,13,0.00,,,0.00,meteohub,2013-09-26 19:42:00,
2013-09-26 15:47:00,63.3,16.3,31.03,NW,306,11.0,14.0,16,0.00,,,0.00,meteohub,2013-09-26 19:47:00,
2013-09-26 15:52:00,63.5,11.8,31.03,WNW,287,8.0,14.0,13,0.00,,,0.00,meteohub,2013-09-26 19:52:00,
2013-09-26 15:57:00,63.9,12.0,31.03,West,266,6.0,13.0,13,0.00,,,0.00,meteohub,2013-09-26 19:57:00,
2013-09-26 16:02:00,63.7,11.8,31.03,West,279,8.0,13.0,13,0.00,,,0.00,meteohub,2013-09-26 20:02:00,
2013-09-26 16:07:00,63.5,11.8,31.03,West,264,8.0,13.0,13,0.00,,,0.00,meteohub,2013-09-26 20:07:00,
2013-09-26 16:12:00,63.0,11.3,31.03,West,262,9.0,13.0,13,0.00,,,0.00,meteohub,2013-09-26 20:12:00,
2013-09-26 16:17:00,62.8,16.0,31.03,WNW,290,5.0,13.0,16,0.00,,,0.00,meteohub,2013-09-26 20:17:00,
2013-09-26 16:22:00,62.6,15.8,31.03,NW,306,7.0,13.0,16,0.00,,,0.00,meteohub,2013-09-26 20:22:00,
2013-09-26 16:28:00,62.8,18.7,31.03,NNW,328,8.0,12.0,18,0.00,,,0.00,meteohub,2013-09-26 20:28:00,
2013-09-26 16:33:00,62.8,16.0,31.03,WNW,302,6.0,12.0,16,0.00,,,0.00,meteohub,2013-09-26 20:33:00,
2013-09-26 16:38:00,62.2,15.4,31.03,West,269,10.0,13.0,16,0.00,,,0.00,meteohub,2013-09-26 20:38:00,
2013-09-26 16:43:00,61.5,18.9,31.03,NW,304,8.0,13.0,19,0.00,,,0.00,meteohub,2013-09-26 20:43:00,
2013-09-26 16:49:00,61.3,21.0,31.03,NW,304,8.0,15.0,21,0.00,,,0.00,meteohub,2013-09-26 20:49:00,
2013-09-26 16:54:00,61.3,21.0,31.03,NW,312,8.0,15.0,21,0.00,,,0.00,meteohub,2013-09-26 20:54:00,
2013-09-26 16:59:00,61.3,24.3,31.03,NW,317,6.0,13.0,24,0.00,,,0.00,meteohub,2013-09-26 20:59:00,
2013-09-26 17:05:00,61.0,23.9,31.03,NW,306,6.0,13.0,24,0.00,,,0.00,meteohub,2013-09-26 21:05:00,
2013-09-26 17:10:00,60.8,23.7,31.03,NW,309,9.0,12.0,24,0.00,,,0.00,meteohub,2013-09-26 21:10:00,
2013-09-26 17:15:00,60.6,24.6,31.03,NW,307,6.0,12.0,25,0.00,,,0.00,meteohub,2013-09-26 21:15:00,
2013-09-26 17:20:00,60.6,24.6,31.03,NW,318,6.0,12.0,25,0.00,,,0.00,meteohub,2013-09-26 21:20:00,
2013-09-26 17:26:00,60.6,24.6,31.03,WNW,292,8.0,12.0,25,0.00,,,0.00,meteohub,2013-09-26 21:26:00,
2013-09-26 17:31:00,60.6,24.6,31.03,NW,313,4.0,11.0,25,0.00,,,0.00,meteohub,2013-09-26 21:31:00,
2013-09-26 17:36:00,60.6,24.6,31.03,WNW,291,9.0,11.0,25,0.00,,,0.00,meteohub,2013-09-26 21:36:00,
2013-09-26 17:41:00,60.6,24.6,31.03,WNW,300,7.0,11.0,25,0.00,,,0.00,meteohub,2013-09-26 21:41:00,
2013-09-26 17:47:00,60.6,24.6,31.03,WNW,299,11.0,13.0,25,0.00,,,0.00,meteohub,2013-09-26 21:47:00,
2013-09-26 17:52:00,60.3,24.3,31.03,WNW,289,8.0,13.0,25,0.00,,,0.00,meteohub,2013-09-26 21:52:00,
2013-09-26 17:57:00,60.1,24.1,31.03,NW,307,6.0,13.0,25,0.00,,,0.00,meteohub,2013-09-26 21:57:00,
2013-09-26 18:02:00,60.1,25.2,31.03,NNW,329,7.0,13.0,26,0.00,,,0.00,meteohub,2013-09-26 22:02:00,
2013-09-26 18:07:00,59.9,25.0,31.03,WNW,299,4.0,13.0,26,0.00,,,0.00,meteohub,2013-09-26 22:07:00,
2013-09-26 18:13:00,59.9,25.0,31.03,NW,314,4.0,10.0,26,0.00,,,0.00,meteohub,2013-09-26 22:13:00,
2013-09-26 18:18:00,59.7,25.7,31.03,WNW,292,5.0,8.0,27,0.00,,,0.00,meteohub,2013-09-26 22:18:00,
2013-09-26 18:23:00,59.4,25.3,31.03,NW,311,5.0,8.0,27,0.00,,,0.00,meteohub,2013-09-26 22:23:00,
2013-09-26 18:28:00,59.0,25.9,31.03,WNW,299,3.0,8.0,28,0.00,,,0.00,meteohub,2013-09-26 22:28:00,
2013-09-26 18:34:00,58.6,25.7,31.03,NW,322,2.0,8.0,28,0.00,,,0.00,meteohub,2013-09-26 22:34:00,
2013-09-26 18:39:00,58.5,26.2,31.03,NW,318,3.0,8.0,29,0.00,,,0.00,meteohub,2013-09-26 22:39:00,
2013-09-26 18:44:00,58.1,26.1,31.03,NW,311,3.0,8.0,29,0.00,,,0.00,meteohub,2013-09-26 22:44:00,
2013-09-26 18:50:00,57.9,25.9,31.03,NW,316,3.0,5.0,29,0.00,,,0.00,meteohub,2013-09-26 22:50:00,
2013-09-26 18:55:00,57.7,26.4,31.03,NW,308,3.0,5.0,30,0.00,,,0.00,meteohub,2013-09-26 22:55:00,
2013-09-26 19:00:00,57.6,26.4,31.03,WNW,284,4.0,5.0,30,0.00,,,0.00,meteohub,2013-09-26 23:00:00,
2013-09-26 19:05:00,57.2,26.1,31.03,West,280,4.0,5.0,30,0.00,,,0.00,meteohub,2013-09-26 23:05:00,
2013-09-26 19:11:00,56.8,26.6,31.03,West,280,3.0,5.0,31,0.00,,,0.00,meteohub,2013-09-26 23:11:00,
2013-09-26 19:16:00,56.7,27.1,31.03,West,280,3.0,5.0,32,0.00,,,0.00,meteohub,2013-09-26 23:16:00,
2013-09-26 19:21:00,56.7,27.1,31.03,West,275,3.0,5.0,32,0.00,,,0.00,meteohub,2013-09-26 23:21:00,
2013-09-26 19:26:00,56.5,27.7,31.03,West,275,2.0,4.0,33,0.00,,,0.00,meteohub,2013-09-26 23:26:00,
2013-09-26 19:32:00,56.5,27.7,31.03,West,275,3.0,4.0,33,0.00,,,0.00,meteohub,2013-09-26 23:32:00,
2013-09-26 19:37:00,56.3,28.2,31.03,West,275,2.0,4.0,34,0.00,,,0.00,meteohub,2013-09-26 23:37:00,
2013-09-26 19:42:00,56.1,28.0,31.03,West,275,0.0,4.0,34,0.00,,,0.00,meteohub,2013-09-26 23:42:00,
2013-09-26 19:47:00,55.9,28.0,31.03,West,275,3.0,4.0,34,0.00,,,0.00,meteohub,2013-09-26 23:47:00,
2013-09-26 19:52:00,55.9,28.0,31.03,West,275,3.0,4.0,34,0.00,,,0.00,meteohub,2013-09-26 23:52:00,
2013-09-26 19:57:00,55.6,27.7,31.03,West,275,3.0,4.0,34,0.00,,,0.00,meteohub,2013-09-26 23:57:00,
2013-09-26 20:02:00,55.4,28.2,31.03,West,275,0.0,4.0,35,0.00,,,0.00,meteohub,2013-09-27 00:02:00,
2013-09-26 20:07:00,55.2,28.0,31.03,West,275,0.0,4.0,35,0.00,,,0.00,meteohub,2013-09-27 00:07:00,
2013-09-26 20:12:00,55.0,27.9,31.03,West,275,3.0,3.0,35,0.00,,,0.00,meteohub,2013-09-27 00:12:00,
2013-09-26 20:17:00,54.9,27.7,31.03,West,275,2.0,3.0,35,0.00,,,0.00,meteohub,2013-09-27 00:17:00,
2013-09-26 20:22:00,54.5,27.3,31.03,West,275,0.0,3.0,35,0.00,,,0.00,meteohub,2013-09-27 00:22:00,
2013-09-26 20:27:00,54.5,27.3,31.03,West,275,0.0,3.0,35,0.00,,,0.00,meteohub,2013-09-27 00:27:00,
2013-09-26 20:32:00,54.3,27.9,31.03,West,275,4.0,4.0,36,0.00,,,0.00,meteohub,2013-09-27 00:32:00,
2013-09-26 20:37:00,54.1,27.7,31.03,West,275,3.0,3.0,36,0.00,,,0.00,meteohub,2013-09-27 00:37:00,
2013-09-26 20:42:00,53.8,27.5,31.03,West,275,2.0,4.0,36,0.00,,,0.00,meteohub,2013-09-27 00:42:00,
2013-09-26 20:47:00,53.6,27.3,31.03,West,275,0.0,4.0,36,0.00,,,0.00,meteohub,2013-09-27 00:47:00,
2013-09-26 20:52:00,53.6,27.3,31.03,West,276,3.0,4.0,36,0.00,,,0.00,meteohub,2013-09-27 00:52:00,
2013-09-26 20:58:00,53.6,27.3,31.03,West,273,3.0,4.0,36,0.00,,,0.00,meteohub,2013-09-27 00:58:00,
2013-09-26 21:03:00,53.6,27.3,31.03,West,273,4.0,4.0,36,0.00,,,0.00,meteohub,2013-09-27 01:03:00,
2013-09-26 21:08:00,53.6,27.3,31.03,West,266,3.0,4.0,36,0.00,,,0.00,meteohub,2013-09-27 01:08:00,
2013-09-26 21:13:00,53.6,28.0,31.03,West,259,4.0,4.0,37,0.00,,,0.00,meteohub,2013-09-27 01:13:00,
2013-09-26 21:19:00,53.6,28.0,31.03,WSW,258,3.0,4.0,37,0.00,,,0.00,meteohub,2013-09-27 01:19:00,
2013-09-26 21:24:00,53.6,28.0,31.03,West,259,2.0,4.0,37,0.00,,,0.00,meteohub,2013-09-27 01:24:00,
2013-09-26 21:29:00,53.6,28.0,31.03,West,259,2.0,4.0,37,0.00,,,0.00,meteohub,2013-09-27 01:29:00,
2013-09-26 21:34:00,53.6,28.6,31.03,SW,233,4.0,4.0,38,0.00,,,0.00,meteohub,2013-09-27 01:34:00,
2013-09-26 21:39:00,54.1,32.7,31.03,SW,232,3.0,4.0,44,0.00,,,0.00,meteohub,2013-09-27 01:39:00,
2013-09-26 21:45:00,54.5,35.2,31.03,SW,232,3.0,4.0,48,0.00,,,0.00,meteohub,2013-09-27 01:45:00,
2013-09-26 21:50:00,54.7,36.3,31.03,SW,232,3.0,4.0,50,0.00,,,0.00,meteohub,2013-09-27 01:50:00,
2013-09-26 21:55:00,54.7,36.3,31.03,SW,233,4.0,4.0,50,0.00,,,0.00,meteohub,2013-09-27 01:55:00,
2013-09-26 22:01:00,54.7,36.3,31.03,SW,233,3.0,4.0,50,0.00,,,0.00,meteohub,2013-09-27 02:01:00,
2013-09-26 22:06:00,54.7,36.0,31.03,SW,232,3.0,4.0,49,0.00,,,0.00,meteohub,2013-09-27 02:06:00,
2013-09-26 22:11:00,54.5,35.8,31.03,SW,232,3.0,4.0,49,0.00,,,0.00,meteohub,2013-09-27 02:11:00,
2013-09-26 22:16:00,54.3,35.1,31.03,SW,232,4.0,4.0,48,0.00,,,0.00,meteohub,2013-09-27 02:16:00,
2013-09-26 22:22:00,54.1,34.9,31.03,SW,232,4.0,4.0,48,0.00,,,0.00,meteohub,2013-09-27 02:22:00,
2013-09-26 22:27:00,54.0,34.7,31.03,SW,232,4.0,4.0,48,0.00,,,0.00,meteohub,2013-09-27 02:27:00,
2013-09-26 22:32:00,54.0,34.7,31.03,WSW,251,4.0,4.0,48,0.00,,,0.00,meteohub,2013-09-27 02:32:00,
2013-09-26 22:37:00,54.0,34.7,31.03,WSW,256,3.0,4.0,48,0.00,,,0.00,meteohub,2013-09-27 02:37:00,
2013-09-26 22:42:00,54.1,34.9,31.03,West,261,3.0,4.0,48,0.00,,,0.00,meteohub,2013-09-27 02:42:00,
2013-09-26 22:47:00,54.5,35.8,31.03,WSW,256,3.0,4.0,49,0.00,,,0.00,meteohub,2013-09-27 02:47:00,
2013-09-26 22:52:00,54.7,36.0,31.03,West,262,4.0,4.0,49,0.00,,,0.00,meteohub,2013-09-27 02:52:00,
2013-09-26 22:58:00,54.7,36.0,31.03,WSW,258,4.0,5.0,49,0.00,,,0.00,meteohub,2013-09-27 02:58:00,
2013-09-26 23:03:00,54.9,36.5,31.03,West,260,4.0,5.0,50,0.00,,,0.00,meteohub,2013-09-27 03:03:00,
2013-09-26 23:08:00,55.2,37.4,31.03,West,267,5.0,5.0,51,0.00,,,0.00,meteohub,2013-09-27 03:08:00,
2013-09-26 23:13:00,55.4,37.0,31.03,West,270,2.0,5.0,50,0.00,,,0.00,meteohub,2013-09-27 03:13:00,
2013-09-26 23:19:00,55.6,37.8,31.03,West,262,4.0,5.0,51,0.00,,,0.00,meteohub,2013-09-27 03:19:00,
2013-09-26 23:24:00,55.8,37.4,31.03,West,262,3.0,5.0,50,0.00,,,0.00,meteohub,2013-09-27 03:24:00,
2013-09-26 23:29:00,55.9,37.6,31.03,West,266,3.0,5.0,50,0.00,,,0.00,meteohub,2013-09-27 03:29:00,
2013-09-26 23:35:00,56.1,37.8,31.03,WNW,283,4.0,5.0,50,0.00,,,0.00,meteohub,2013-09-27 03:35:00,
2013-09-26 23:40:00,56.1,37.8,31.03,West,277,3.0,5.0,50,0.00,,,0.00,meteohub,2013-09-27 03:40:00,
2013-09-26 23:45:00,56.5,38.7,31.03,West,273,4.0,5.0,51,0.00,,,0.00,meteohub,2013-09-27 03:45:00,
2013-09-26 23:50:00,56.7,38.7,31.03,West,274,3.0,5.0,51,0.00,,,0.00,meteohub,2013-09-27 03:50:00,
2013-09-26 23:56:00,56.7,38.7,31.03,West,273,0.0,5.0,51,0.00,,,0.00,meteohub,2013-09-27 03:56:00,